Theta_e
313 312 313 313 313 313 314 314 313 313 311 313 313 314 314 314 314 314 314 315 315 315 315 313 312 317 325 329 331 333 334 335 335 333 332 331 331 330 330 330 329 327 325 323
312 312 312 313 313 312 312 313 312 311 312 313 313 314 313 313 314 314 314 314 315 315 316 315 314 312 316 324 327 330 332 334 335 333 331 332 332 330 330 329 329 329 327 325
312 311 312 313 312 312 312 312 312 311 312 311 311 312 313 313 312 313 313 314 314 315 315 316 314 313 312 312 316 324 327 331 334 334 332 331 332 330 330 330 330 329 328 326
312 311 312 312 311 311 311 311 311 311 311 311 312 311 314 313 312 311 311 312 313 313 313 313 312 311 311 311 311 311 317 324 329 334 332 332 330 329 330 329 329 329 329 328
311 311 311 312 312 311 311 312 311 312 313 313 312 312 311 312 312 312 313 313 313 312 312 313 313 311 311 309 308 308 309 314 322 328 333 330 331 330 329 328 329 328 328 328
311 308 311 312 310 311 310 312 312 312 311 312 311 312 312 313 312 312 312 311 311 311 312 311 311 311 313 315 315 310 307 308 315 322 329 330 329 328 329 329 329 328 328 327
310 309 309 309 311 311 311 312 312 312 312 311 311 312 312 313 312 311 311 311 311 313 313 312 312 313 314 318 317 316 309 307 311 317 324 328 327 327 327 328 328 328 327 326
310 310 310 309 311 311 312 311 314 318 314 312 309 311 311 313 312 309 309 309 312 313 312 312 311 311 312 315 316 318 317 312 312 317 321 324 325 326 326 327 327 327 327 327
310 310 310 310 310 311 311 312 312 312 310 314 313 312 312 313 311 310 310 310 313 313 312 312 311 310 311 312 315 316 317 317 318 318 320 323 323 324 325 326 326 326 326 326
310 311 310 309 310 311 311 311 310 312 324 315 310 312 312 313 311 312 311 311 312 312 311 311 310 309 309 310 312 315 315 316 315 316 317 319 319 320 322 324 324 324 324 323
310 310 313 310 310 310 310 311 310 310 311 314 312 310 311 312 313 312 312 314 314 312 312 310 309 308 308 308 310 312 314 314 315 316 316 317 318 319 321 322 321 321 320 319
310 312 315 311 310 311 311 310 311 312 312 311 313 314 310 311 311 312 314 314 313 312 311 309 308 308 308 308 308 309 310 312 312 314 315 316 317 317 317 317 317 317 316 314
311 320 321 316 311 311 312 311 311 312 314 319 315 312 312 311 310 312 313 313 311 310 309 308 307 308 308 307 307 307 307 307 308 310 311 312 313 313 312 312 311 310 308 308
311 318 314 314 313 312 313 311 311 311 316 314 314 312 312 313 312 312 313 312 311 309 309 309 308 307 307 306 306 306 305 306 306 306 307 306 306 306 306 306 306 306 305 305
311 315 313 313 315 317 314 313 313 312 312 313 312 312 312 312 313 313 313 313 312 310 308 309 308 307 305 304 304 303 303 303 303 304 303 302 303 303 303 303 303 303 303 303
312 317 313 314 313 314 316 314 313 312 311 311 311 311 312 312 312 312 313 314 314 311 309 308 307 306 305 304 303 301 301 301 301 301 300 300 300 301 301 301 301 301 301 301
314 314 317 315 314 316 315 313 314 313 311 311 311 312 312 312 312 312 314 314 314 312 310 308 306 304 303 302 301 301 299 299 299 298 297 298 298 299 299 299 300 300 300 300
311 314 318 320 316 318 314 312 311 313 313 312 311 312 313 313 312 312 312 314 313 312 310 307 305 303 301 299 298 297 297 297 296 295 295 295 295 296 296 296 297 297 297 296
314 314 318 318 320 318 316 310 313 313 313 312 312 312 312 312 309 311 309 311 313 311 307 305 303 300 297 296 295 295 295 294 293 293 293 293 293 293 293 293 293 293 293 293
312 313 316 317 321 321 318 312 312 313 317 315 314 313 313 311 313 313 308 305 308 306 304 301 298 296 295 294 294 294 293 292 291 290 290 291 291 292 292 292 292 292 292 292
314 313 316 319 321 321 311 307 312 317 320 308 311 313 313 312 312 307 304 303 302 300 298 296 295 295 293 293 293 292 290 289 289 289 289 290 290 290 290 290 291 291 291 291
314 315 316 317 319 319 305 309 316 312 304 305 306 309 311 309 304 302 301 300 298 297 296 294 292 290 290 291 292 289 288 287 288 288 288 288 288 289 289 290 290 290 290 290
316 315 317 316 318 306 307 309 306 304 306 304 306 305 306 302 302 301 299 298 297 296 292 290 288 286 287 288 289 287 284 285 286 287 287 288 288 288 289 289 289 288 288 288
306 302 311 313 308 305 305 302 302 301 302 301 301 303 303 303 300 298 297 295 293 291 290 287 286 284 283 284 286 285 285 285 286 287 287 287 287 287 287 287 287 286 286 286
305 304 307 308 301 301 302 302 303 300 298 297 296 297 299 299 296 295 294 292 291 288 287 286 285 283 281 282 283 283 284 285 284 284 284 284 284 284 284 284 284 285 284 284
298 304 308 311 306 306 305 302 301 301 299 298 297 294 293 296 295 294 292 290 287 285 285 285 284 283 281 281 280 281 281 282 283 283 282 282 282 282 282 282 283 283 283 283
Wind_Speed
9 10 14 16 15 11 9 11 11 6 2 7 12 12 14 13 13 13 13 12 13 12 12 16 18 20 21 22 24 26 27 27 26 28 27 27 27 31 29 22 20 20 21 22
6 14 14 14 15 7 6 10 9 5 4 2 6 12 14 14 15 15 16 16 16 15 13 13 13 16 21 24 25 26 28 28 29 27 29 28 26 28 33 30 29 21 22 22
14 7 15 9 9 12 11 11 7 6 5 4 6 15 15 14 15 16 17 17 16 14 13 10 14 15 16 20 23 26 28 29 29 29 25 25 21 25 27 29 32 34 28 25
12 6 11 13 15 14 14 11 9 5 3 6 1 7 5 8 12 11 14 15 16 15 10 9 8 10 14 14 15 20 23 27 29 28 29 28 27 26 26 28 31 33 33 33
7 11 14 17 18 16 7 5 9 6 7 7 9 7 9 3 9 14 14 13 10 7 5 5 4 5 7 8 13 17 20 23 26 29 29 30 29 26 25 25 26 29 31 31
1 5 8 9 4 13 13 10 7 4 5 7 13 9 9 12 11 10 3 8 7 5 4 2 2 0 3 3 6 10 13 17 22 24 28 29 27 28 23 23 24 26 28 29
5 6 4 6 10 7 12 13 5 5 5 6 3 6 16 4 6 3 4 8 8 6 6 4 3 2 2 2 2 4 8 12 16 20 23 26 27 24 27 25 21 21 23 24
14 10 13 10 12 11 20 19 8 7 6 5 3 9 6 7 2 1 5 4 2 6 6 6 4 3 2 1 1 1 2 6 10 14 18 19 22 23 23 23 21 22 22 23
16 13 16 16 5 14 15 14 12 3 2 1 7 9 12 11 9 10 10 7 6 5 6 6 6 4 2 2 2 2 2 1 3 7 11 12 16 21 20 19 18 18 17 17
6 8 9 7 3 10 10 11 5 5 6 6 10 13 12 4 13 11 11 11 8 6 5 5 4 4 2 2 3 3 3 3 3 5 7 11 13 14 13 13 14 14 13 12
8 10 4 7 15 20 7 12 10 8 10 8 7 10 7 11 12 13 10 6 7 6 6 5 4 4 3 2 3 3 4 3 3 5 7 9 9 10 11 11 10 9 9 9
21 7 6 13 3 8 17 21 22 9 11 8 7 12 5 3 1 4 8 8 7 7 6 5 6 6 5 4 4 4 5 6 4 5 6 8 9 9 9 9 8 8 8 8
15 5 4 2 4 8 9 16 17 18 0 9 9 13 4 2 3 2 8 8 7 6 6 5 5 5 5 5 5 5 5 6 6 6 6 8 8 8 7 7 7 7 6 6
15 3 16 18 15 7 9 16 17 16 10 17 12 21 14 6 6 7 7 8 8 8 8 7 7 7 6 6 6 7 6 7 7 8 7 7 7 8 6 6 5 4 4 5
11 10 11 20 9 3 11 15 21 18 22 19 25 23 25 14 11 10 9 9 11 11 10 9 8 7 9 9 9 8 6 7 7 8 7 6 6 6 5 3 2 2 3 5
8 3 12 6 14 12 4 15 22 25 26 25 27 23 17 9 10 13 10 11 12 13 12 10 9 11 11 10 10 9 8 7 9 8 7 7 7 7 6 5 3 1 1 3
10 6 4 12 7 5 6 28 18 20 25 24 24 36 12 13 6 9 12 14 13 12 11 12 11 13 13 12 11 11 10 9 11 11 9 9 9 8 7 7 6 4 3 2
8 7 3 3 4 9 15 11 23 22 21 23 26 20 6 8 10 12 12 11 12 12 12 11 13 14 13 12 12 13 13 13 14 12 10 8 8 7 7 6 6 5 3 3
11 8 5 7 11 11 16 6 9 15 29 25 23 18 15 10 1 9 6 9 11 8 10 14 15 17 16 13 14 17 16 15 14 10 8 7 7 7 7 6 5 4 3 4
5 8 10 6 8 12 4 13 7 7 20 9 19 22 21 7 10 13 11 7 8 15 18 20 19 19 17 16 18 18 15 13 10 7 6 6 6 6 5 4 4 5 7 9
6 8 16 9 6 6 2 7 9 10 4 0 3 7 6 10 11 4 7 8 13 16 20 20 20 17 16 17 18 18 14 11 8 7 6 5 5 4 4 4 6 8 10 12
10 8 6 4 6 13 7 5 10 2 2 2 1 1 5 4 5 7 8 9 11 15 20 20 21 19 17 17 19 18 14 10 8 7 6 5 4 4 5 7 8 10 11 13
5 3 5 7 4 2 12 2 4 2 3 2 2 1 4 6 6 9 9 11 11 16 15 17 19 18 14 16 16 17 11 9 8 7 5 3 3 5 6 8 9 11 12 13
3 2 2 2 3 3 8 1 1 2 3 3 2 2 5 6 8 7 8 8 8 14 15 19 20 17 14 14 14 13 10 7 6 4 2 2 4 6 7 8 8 9 11 11
1 8 5 3 1 1 5 9 3 5 3 2 2 2 5 6 7 8 7 8 11 13 15 17 17 16 14 13 12 9 8 6 4 3 2 3 4 6 7 8 8 9 9 10
5 4 6 4 6 2 3 3 6 7 4 4 4 2 2 6 10 8 8 12 15 15 19 19 18 18 15 12 10 8 6 4 3 2 2 3 4 5 7 9 11 9 12 10
Wind_Direction
188 199 207 204 218 249 242 214 206 201 131 220 229 245 253 247 221 250 247 244 246 241 235 223 218 215 214 216 215 217 214 215 210 210 206 208 208 220 219 211 216 214 213 217
169 217 207 222 222 213 194 214 214 123 150 244 251 258 259 256 247 241 247 245 237 241 237 210 207 207 211 214 217 219 220 217 215 214 214 214 212 220 224 224 224 216 217 217
199 188 216 190 192 206 223 228 209 274 161 225 282 268 242 242 245 239 238 251 257 245 231 221 197 212 213 217 219 219 222 222 219 216 216 218 217 216 224 222 232 235 223 221
225 135 179 194 209 205 220 224 245 182 232 259 256 279 206 214 232 225 238 240 245 243 238 248 244 230 235 234 228 226 226 226 222 215 208 210 211 219 222 225 226 231 237 230
179 169 177 197 202 199 221 163 211 216 242 301 223 270 256 113 254 248 233 232 221 243 229 213 216 243 251 242 237 235 228 227 222 218 212 217 218 225 229 230 229 233 237 235
232 350 206 207 105 195 132 125 132 179 232 251 243 227 254 236 226 245 204 179 165 174 178 164 137 223 241 237 248 235 227 227 222 219 220 218 220 224 220 217 215 223 234 241
165 187 158 161 124 154 178 170 182 218 207 245 17 215 253 259 219 230 216 173 166 163 164 143 135 113 47 34 269 229 220 223 219 219 221 223 227 227 227 225 217 211 227 236
199 199 186 184 205 174 194 189 190 199 208 212 135 232 245 236 283 183 201 220 240 177 164 160 137 106 78 56 15 59 187 216 212 215 220 222 226 231 230 226 220 229 239 245
198 222 159 179 179 162 199 221 237 100 53 233 210 248 274 226 231 222 216 209 228 199 181 164 151 148 136 89 74 68 75 110 174 205 215 217 218 226 230 224 228 235 238 241
179 194 194 168 163 235 209 174 177 217 192 231 242 238 249 182 223 215 218 218 221 186 180 176 165 146 133 103 79 106 105 125 164 188 197 209 219 223 222 214 213 220 226 232
223 221 145 158 210 189 180 195 219 223 226 221 248 246 288 247 213 223 208 179 186 184 185 175 163 160 160 137 115 112 117 132 147 162 177 186 197 203 199 193 196 196 200 207
209 214 175 201 134 273 232 215 205 204 213 237 265 255 111 85 149 231 178 171 159 165 169 167 173 170 157 147 137 121 115 116 123 142 145 147 151 154 152 155 172 190 198 207
180 181 143 226 254 213 227 230 232 230 229 200 209 244 111 113 203 183 186 172 164 177 162 169 171 166 160 148 143 129 119 117 120 122 136 144 145 143 150 163 179 180 194 213
169 139 210 216 227 169 203 225 222 236 228 238 227 249 222 196 217 196 189 177 173 181 178 183 176 166 153 157 142 127 123 118 117 118 122 123 124 130 143 164 177 188 225 249
188 209 213 240 258 301 197 202 212 211 224 222 238 236 249 237 206 209 200 190 190 192 190 187 178 165 163 158 143 133 126 122 119 118 122 126 134 133 137 154 169 227 253 265
205 239 217 248 238 230 260 223 208 213 221 226 239 247 248 266 226 211 201 203 206 205 199 187 173 169 168 160 145 135 126 123 126 126 129 128 127 124 126 124 123 137 357 308
166 141 137 239 159 98 290 229 220 224 224 222 230 242 236 239 194 215 204 205 209 207 196 185 181 175 166 161 156 144 132 135 130 127 123 117 113 109 101 97 96 84 60 9
150 147 131 154 94 217 249 222 223 223 232 228 245 251 232 252 210 213 220 210 211 207 191 178 173 164 151 146 139 134 136 136 126 121 113 105 98 93 93 86 75 67 47 5
200 164 179 200 210 286 273 194 193 205 242 232 243 243 241 229 313 235 203 213 208 177 157 162 159 148 142 141 139 139 135 132 121 112 111 109 107 100 90 84 80 64 29 1
188 201 190 168 219 224 328 177 193 157 259 211 227 236 239 143 235 251 183 154 144 149 148 140 132 135 136 142 142 138 129 121 111 109 106 103 96 89 81 67 54 25 3 352
171 185 199 198 223 271 119 142 146 171 252 347 198 221 181 196 226 92 115 134 133 133 131 134 136 130 136 142 145 135 131 117 117 120 119 109 99 87 61 38 19 1 349 341
178 164 183 181 209 242 144 118 179 187 46 41 86 202 191 130 107 133 141 137 136 133 136 135 128 130 140 148 152 140 133 137 135 133 120 100 78 53 25 8 357 347 339 332
171 205 166 206 185 58 180 69 118 139 110 100 23 74 129 125 149 150 152 148 146 141 129 129 125 123 129 143 154 142 135 140 133 128 114 86 39 12 357 348 342 337 334 329
190 192 213 201 152 144 207 78 299 119 82 78 57 149 171 157 159 147 148 139 129 132 131 136 135 131 128 135 143 143 141 138 135 132 92 24 2 358 347 342 336 328 324 318
53 150 155 268 192 158 235 232 180 156 155 159 109 180 190 144 149 150 145 142 138 131 132 141 137 136 136 142 141 144 139 137 135 115 68 16 356 347 338 332 325 319 315 303
191 183 190 229 169 130 78 117 167 174 190 196 189 187 187 162 161 152 148 145 140 139 147 150 153 153 152 155 156 145 134 122 112 87 12 346 351 342 339 333 331 329 322 315